• In Lithuania
  • List of Countries
  • For 7 days
  • Water Temperature
  • Satellite Maps
  • Weather Map
  • Weather Widgets
  • user-avatar
    Login

    Hourly Weather Adelaide

    Today, 20 September, Thursday

    Time Temperature Precipitation Wind Pressure Humidity
    00:00 +10°C° 0 mm 3 mps 762 mmHg 90%
    01:00 +9°C° 0 mm 3 mps 762 mmHg 90%
    02:00 +9°C° 0 mm 2 mps 762 mmHg 90%
    03:00 +9°C° 0 mm 2 mps 762 mmHg 90%
    04:00 +9°C° 0 mm 2 mps 762 mmHg 90%
    05:00 +9°C° 0 mm 2 mps 762 mmHg 90%
    06:00 +9°C° 0 mm 2 mps 763 mmHg 90%
    07:00 +11°C° 0 mm 3 mps 763 mmHg 83%
    08:00 +12°C° 0 mm 3 mps 764 mmHg 76%
    09:00 +14°C° 0 mm 3 mps 764 mmHg 69%
    10:00 +14°C° 0 mm 3 mps 764 mmHg 67%
    11:00 +16°C° 0 mm 3 mps 764 mmHg 65%
    12:00 +16°C° 0 mm 3 mps 764 mmHg 63%
    13:00 +16°C° 0 mm 3 mps 764 mmHg 62%
    14:00 +16°C° 0 mm 3 mps 764 mmHg 62%
    15:00 +16°C° 0 mm 3 mps 764 mmHg 61%
    16:00 +14°C° 0 mm 3 mps 764 mmHg 67%
    17:00 +14°C° 0 mm 2 mps 765 mmHg 73%
    18:00 +13°C° 0 mm 2 mps 765 mmHg 79%
    19:00 +12°C° 0 mm 1 mps 765 mmHg 81%
    20:00 +11°C° 0 mm 1 mps 766 mmHg 83%
    21:00 +11°C° 0 mm 1 mps 766 mmHg 85%
    22:00 +10°C° 0 mm 1 mps 766 mmHg 86%
    23:00 +10°C° 0 mm 1 mps 766 mmHg 86%

    Tomorrow, 21 September, Friday

    Time Temperature Precipitation Wind Pressure Humidity
    00:00 +10°C° 0 mm 1 mps 766 mmHg 87%
    01:00 +10°C° 0 mm 1 mps 766 mmHg 88%
    02:00 +9°C° 0 mm 2 mps 766 mmHg 89%
    03:00 +8°C° 0 mm 2 mps 766 mmHg 90%
    04:00 +8°C° 0 mm 2 mps 766 mmHg 90%
    05:00 +8°C° 0 mm 2 mps 767 mmHg 91%
    06:00 +8°C° 0 mm 2 mps 767 mmHg 91%
    07:00 +10°C° 0 mm 2 mps 767 mmHg 82%
    08:00 +13°C° 0 mm 2 mps 767 mmHg 73%
    09:00 +16°C° 0 mm 2 mps 767 mmHg 65%
    10:00 +17°C° 0 mm 2 mps 767 mmHg 60%
    11:00 +18°C° 0 mm 2 mps 767 mmHg 55%
    12:00 +19°C° 0 mm 2 mps 767 mmHg 51%
    13:00 +19°C° 0 mm 2 mps 766 mmHg 51%
    14:00 +19°C° 0 mm 2 mps 765 mmHg 51%
    15:00 +19°C° 0 mm 3 mps 765 mmHg 51%
    16:00 +18°C° 0 mm 2 mps 765 mmHg 59%
    17:00 +16°C° 0 mm 2 mps 765 mmHg 66%
    18:00 +14°C° 0 mm 1 mps 765 mmHg 74%
    19:00 +13°C° 0 mm 1 mps 766 mmHg 75%
    20:00 +13°C° 0 mm 1 mps 766 mmHg 77%
    21:00 +12°C° 0 mm 1 mps 766 mmHg 78%
    22:00 +12°C° 0 mm 1 mps 766 mmHg 78%
    23:00 +12°C° 0 mm 1 mps 766 mmHg 79%

    Day after tomorrow, 22 September, Saturday

    Time Temperature Precipitation Wind Pressure Humidity
    00:00 +12°C° 0 mm 1 mps 766 mmHg 79%
    01:00 +12°C° 0 mm 1 mps 766 mmHg 79%
    02:00 +12°C° 0 mm 2 mps 766 mmHg 79%
    03:00 +10°C° 0 mm 2 mps 765 mmHg 80%
    04:00 +10°C° 0 mm 2 mps 766 mmHg 80%
    05:00 +11°C° 0 mm 1 mps 766 mmHg 81%
    06:00 +11°C° 0 mm 1 mps 766 mmHg 81%
    07:00 +14°C° 0 mm 1 mps 766 mmHg 73%
    08:00 +16°C° 0 mm 2 mps 767 mmHg 65%
    09:00 +18°C° 0 mm 2 mps 767 mmHg 57%
    10:00 +19°C° 0 mm 2 mps 767 mmHg 53%
    11:00 +20°C° 0 mm 3 mps 767 mmHg 50%
    12:00 +21°C° 0 mm 3 mps 766 mmHg 46%
    13:00 +21°C° 0 mm 3 mps 766 mmHg 47%
    14:00 +21°C° 0 mm 3 mps 766 mmHg 47%
    15:00 +21°C° 0 mm 3 mps 766 mmHg 47%
    16:00 +19°C° 0 mm 3 mps 766 mmHg 55%
    17:00 +17°C° 0 mm 3 mps 767 mmHg 63%
    18:00 +14°C° 0 mm 3 mps 767 mmHg 71%
    19:00 +14°C° 0 mm 3 mps 768 mmHg 77%
    20:00 +13°C° 0 mm 3 mps 768 mmHg 83%
    21:00 +12°C° 0 mm 3 mps 769 mmHg 89%
    22:00 +12°C° 0 mm 3 mps 769 mmHg 90%
    23:00 +12°C° 0 mm 3 mps 769 mmHg 91%

    23 September, Sunday

    Time Temperature Precipitation Wind Pressure Humidity
    00:00 +12°C° 0 mm 3 mps 769 mmHg 92%
    01:00 +12°C° 0 mm 3 mps 769 mmHg 92%
    02:00 +12°C° 0 mm 3 mps 769 mmHg 91%
    03:00 +12°C° 0 mm 3 mps 768 mmHg 91%
    04:00 +11°C° 0 mm 3 mps 769 mmHg 89%
    05:00 +11°C° 0 mm 4 mps 769 mmHg 88%
    06:00 +11°C° 0 mm 4 mps 770 mmHg 87%
    07:00 +12°C° 0 mm 4 mps 770 mmHg 80%
    08:00 +12°C° 0 mm 4 mps 770 mmHg 73%
    09:00 +13°C° 0 mm 4 mps 770 mmHg 66%
    10:00 +14°C° 0 mm 4 mps 770 mmHg 60%
    11:00 +15°C° 0 mm 4 mps 770 mmHg 55%
    12:00 +17°C° 0 mm 4 mps 770 mmHg 49%
    13:00 +17°C° 0 mm 4 mps 769 mmHg 49%
    14:00 +16°C° 0 mm 5 mps 769 mmHg 48%
    15:00 +16°C° 0 mm 5 mps 768 mmHg 48%
    16:00 +15°C° 0 mm 5 mps 769 mmHg 54%
    17:00 +13°C° 0 mm 5 mps 769 mmHg 59%
    18:00 +10°C° 0 mm 5 mps 769 mmHg 65%
    19:00 +9°C° 0 mm 5 mps 770 mmHg 68%
    20:00 +9°C° 0 mm 5 mps 770 mmHg 72%
    21:00 +8°C° 0 mm 5 mps 770 mmHg 76%
    22:00 +7°C° 0 mm 5 mps 770 mmHg 77%
    23:00 +7°C° 0 mm 5 mps 770 mmHg 78%

    24 September, Monday

    Time Temperature Precipitation Wind Pressure Humidity
    00:00 +6°C° 0 mm 4 mps 769 mmHg 79%
    01:00 +6°C° 0 mm 4 mps 769 mmHg 80%
    02:00 +5°C° 0 mm 4 mps 769 mmHg 81%
    03:00 +5°C° 0 mm 4 mps 769 mmHg 82%
    04:00 +5°C° 0 mm 4 mps 769 mmHg 81%
    05:00 +5°C° 0 mm 5 mps 769 mmHg 80%
    06:00 +3°C° 0 mm 5 mps 769 mmHg 80%
    07:00 +7°C° 0 mm 5 mps 769 mmHg 71%
    08:00 +9°C° 0 mm 5 mps 769 mmHg 63%
    09:00 +12°C° 0 mm 5 mps 769 mmHg 54%
    10:00 +14°C° 0 mm 4 mps 768 mmHg 49%
    11:00 +16°C° 0 mm 3 mps 768 mmHg 44%
    12:00 +18°C° 0 mm 2 mps 767 mmHg 39%
    13:00 +18°C° 0 mm 3 mps 767 mmHg 39%
    14:00 +18°C° 0 mm 3 mps 766 mmHg 39%
    15:00 +19°C° 0 mm 4 mps 766 mmHg 39%
    16:00 +17°C° 0 mm 4 mps 766 mmHg 46%
    17:00 +14°C° 0 mm 5 mps 766 mmHg 53%
    18:00 +12°C° 0 mm 5 mps 766 mmHg 60%
    19:00 +10°C° 0 mm 5 mps 767 mmHg 65%
    20:00 +9°C° 0 mm 5 mps 767 mmHg 69%
    21:00 +8°C° 0 mm 5 mps 767 mmHg 74%
    22:00 +8°C° 0 mm 4 mps 766 mmHg 76%
    23:00 +7°C° 0 mm 4 mps 766 mmHg 77%

    25 September, Tuesday

    Time Temperature Precipitation Wind Pressure Humidity
    00:00 +7°C° 0 mm 4 mps 766 mmHg 79%
    01:00 +7°C° 0 mm 4 mps 765 mmHg 80%
    02:00 +7°C° 0 mm 4 mps 765 mmHg 81%
    03:00 +6°C° 0 mm 4 mps 765 mmHg 82%
    04:00 +6°C° 0 mm 4 mps 765 mmHg 82%
    05:00 +6°C° 0 mm 4 mps 765 mmHg 82%
    06:00 +6°C° 0 mm 4 mps 765 mmHg 82%
    07:00 +8°C° 0 mm 4 mps 766 mmHg 74%
    08:00 +11°C° 0 mm 4 mps 766 mmHg 66%
    09:00 +13°C° 0 mm 4 mps 766 mmHg 58%
    10:00 +13°C° 0.1 mm 4 mps 766 mmHg 57%
    11:00 +14°C° 0.1 mm 3 mps 765 mmHg 55%
    12:00 +16°C° 0.1 mm 3 mps 765 mmHg 54%
    13:00 +16°C° 0.1 mm 3 mps 764 mmHg 54%
    14:00 +16°C° 0.1 mm 3 mps 763 mmHg 54%
    15:00 +17°C° 0.1 mm 3 mps 763 mmHg 54%
    16:00 +14°C° 0.5 mm 3 mps 763 mmHg 62%
    17:00 +13°C° 0.5 mm 4 mps 763 mmHg 70%
    18:00 +12°C° 0.5 mm 4 mps 763 mmHg 77%
    19:00 +11°C° 0.5 mm 4 mps 763 mmHg 80%
    20:00 +11°C° 0.5 mm 4 mps 763 mmHg 83%
    21:00 +11°C° 0.5 mm 3 mps 763 mmHg 86%
    22:00 +11°C° 0.8 mm 4 mps 762 mmHg 87%
    23:00 +11°C° 0.8 mm 4 mps 762 mmHg 88%
    Show more